^^
Your Local Weather - Clay, NY Station Historical Data
Daily Summary for January 4, 2018 Units:  English    Metric   Both
« Previous Day
Next Day »
Daily Weekly Monthly Yearly Custom
  High: Low: Average:
Temperature: 20.8 °F 9.0 °F 16 °F
Dew Point: 17.8 °F 2.2 °F 11.2 °F
Humidity: 89% 62% 81%
Wind Speed: 4.0mph 0.0mph 1.2mph
Wind Gust: 8.0mph - -
Wind- - NW
Pressure: 29.98 in 29.62 in -
Precipitation: 0.00 in    
Historical Graphs
 
 
Tabular Data for January 4, 2018
Time Temperature Dew Point Pressure Wind Wind Speed Wind Gust Humidity Rainfall Rate (Hourly) solar
00:08 12.9 °F 2.3 °F 29.98 in Calm   1.0 mph 62% 0.00 in 0 W/m2
00:14 12.4 °F 2.2 °F 29.97 in Calm     63% 0.00 in 0 W/m2
00:26 11.9 °F 2.7 °F 29.96 in Calm     66% 0.00 in 0 W/m2
00:28 11.9 °F 3.0 °F 29.96 in Calm     67% 0.00 in 0 W/m2
00:40 11.6 °F 3.1 °F 29.96 in Calm     68% 0.00 in 0 W/m2
00:42 11.6 °F 3.1 °F 29.96 in Calm     68% 0.00 in 0 W/m2
00:48 11.5 °F 3.3 °F 29.95 in Calm     69% 0.00 in 0 W/m2
00:56 11.6 °F 3.7 °F 29.95 in Calm     70% 0.00 in 0 W/m2
01:02 11.7 °F 3.8 °F 29.95 in Calm     70% 0.00 in 0 W/m2
01:04 11.7 °F 3.5 °F 29.95 in Calm     69% 0.00 in 0 W/m2
01:08 11.7 °F 3.5 °F 29.94 in Calm     69% 0.00 in 0 W/m2
01:18 11.7 °F 3.5 °F 29.94 in Calm   1.0 mph 69% 0.00 in 0 W/m2
01:24 11.9 °F 3.7 °F 29.94 in Calm     69% 0.00 in 0 W/m2
01:30 12.1 °F 4.2 °F 29.93 in Calm     70% 0.00 in 0 W/m2
01:34 12.2 °F 4.6 °F 29.94 in Calm     71% 0.00 in 0 W/m2
01:42 12.3 °F 4.7 °F 29.94 in Calm     71% 0.00 in 0 W/m2
01:48 12.5 °F 5.2 °F 29.94 in Calm     72% 0.00 in 0 W/m2
01:52 12.7 °F 5.4 °F 29.94 in Calm     72% 0.00 in 0 W/m2
01:56 12.9 °F 5.9 °F 29.94 in Calm     73% 0.00 in 0 W/m2
02:02 13.1 °F 5.8 °F 29.95 in Calm   1.0 mph 72% 0.00 in 0 W/m2
02:08 13.3 °F 6.0 °F 29.95 in Calm   2.0 mph 72% 0.00 in 0 W/m2
02:14 13.6 °F 5.9 °F 29.95 in Calm     71% 0.00 in 0 W/m2
02:18 13.7 °F 5.7 °F 29.95 in Calm     70% 0.00 in 0 W/m2
02:20 13.8 °F 5.8 °F 29.95 in Calm     70% 0.00 in 0 W/m2
02:24 13.9 °F 6.2 °F 29.95 in Calm     71% 0.00 in 0 W/m2
02:30 13.9 °F 6.2 °F 29.95 in Calm     71% 0.00 in 0 W/m2
02:36 13.9 °F 6.2 °F 29.94 in Calm     71% 0.00 in 0 W/m2
02:42 13.9 °F 5.9 °F 29.94 in Calm     70% 0.00 in 0 W/m2
02:48 14.1 °F 6.1 °F 29.93 in Calm     70% 0.00 in 0 W/m2
02:50 14.1 °F 6.1 °F 29.93 in Calm     70% 0.00 in 0 W/m2
02:52 14.0 °F 6.0 °F 29.93 in Calm     70% 0.00 in 0 W/m2
03:00 14.1 °F 6.1 °F 29.93 in Calm     70% 0.00 in 0 W/m2
03:06 13.9 °F 6.2 °F 29.93 in Calm     71% 0.00 in 0 W/m2
03:12 14.0 °F 6.6 °F 29.93 in Calm     72% 0.00 in 0 W/m2
03:18 14.0 °F 6.6 °F 29.93 in Calm     72% 0.00 in 0 W/m2
03:24 14.1 °F 6.7 °F 29.93 in Calm     72% 0.00 in 0 W/m2
03:28 14.2 °F 6.8 °F 29.93 in Calm     72% 0.00 in 0 W/m2
03:34 14.3 °F 7.2 °F 29.93 in Calm     73% 0.00 in 0 W/m2
03:38 14.3 °F 7.2 °F 29.92 in Calm     73% 0.00 in 0 W/m2
03:44 14.3 °F 7.2 °F 29.92 in Calm     73% 0.00 in 0 W/m2
03:50 14.3 °F 7.2 °F 29.92 in Calm     73% 0.00 in 0 W/m2
03:56 14.3 °F 7.5 °F 29.92 in Calm     74% 0.00 in 0 W/m2
04:02 14.3 °F 7.5 °F 29.92 in Calm     74% 0.00 in 0 W/m2
04:08 14.4 °F 7.6 °F 29.92 in Calm     74% 0.00 in 0 W/m2
04:12 14.5 °F 7.7 °F 29.92 in Calm     74% 0.00 in 0 W/m2
04:18 14.6 °F 7.5 °F 29.91 in Calm   1.0 mph 73% 0.00 in 0 W/m2
04:24 14.7 °F 7.6 °F 29.91 in Calm     73% 0.00 in 0 W/m2
04:26 14.8 °F 7.7 °F 29.91 in Calm     73% 0.00 in 0 W/m2
04:30 14.8 °F 7.7 °F 29.90 in Calm     73% 0.00 in 0 W/m2
04:36 14.8 °F 7.7 °F 29.91 in Calm     73% 0.00 in 0 W/m2
04:42 14.8 °F 7.7 °F 29.90 in Calm     73% 0.00 in 0 W/m2
04:48 14.7 °F 7.6 °F 29.91 in Calm     73% 0.00 in 0 W/m2
04:56 14.7 °F 7.6 °F 29.90 in Calm     73% 0.00 in 0 W/m2
05:04 14.8 °F 7.7 °F 29.90 in Calm     73% 0.00 in 0 W/m2
05:10 14.9 °F 7.5 °F 29.89 in Calm     72% 0.00 in 0 W/m2
05:12 14.9 °F 7.5 °F 29.89 in Calm     72% 0.00 in 0 W/m2
05:18 14.9 °F 7.8 °F 29.89 in Calm     73% 0.00 in 0 W/m2
05:22 14.9 °F 7.8 °F 29.89 in Calm     73% 0.00 in 0 W/m2
05:30 14.9 °F 7.8 °F 29.88 in Calm     73% 0.00 in 0 W/m2
05:36 14.9 °F 7.8 °F 29.88 in Calm     73% 0.00 in 0 W/m2
05:44 14.9 °F 7.8 °F 29.87 in Calm     73% 0.00 in 0 W/m2
05:46 14.9 °F 7.8 °F 29.87 in Calm     73% 0.00 in 0 W/m2
05:52 14.8 °F 7.7 °F 29.87 in Calm     73% 0.00 in 0 W/m2
05:58 14.8 °F 7.7 °F 29.86 in Calm     73% 0.00 in 0 W/m2
06:06 14.7 °F 7.9 °F 29.86 in Calm     74% 0.00 in 0 W/m2
06:16 14.7 °F 7.9 °F 29.85 in Calm     74% 0.00 in 0 W/m2
06:32 14.8 °F 8.3 °F 29.84 in Calm     75% 0.00 in 0 W/m2
06:36 14.8 °F 8.3 °F 29.84 in Calm     75% 0.00 in 0 W/m2
06:42 14.8 °F 8.3 °F 29.83 in Calm     75% 0.00 in 0 W/m2
06:48 14.5 °F 8.3 °F 29.83 in Calm     76% 0.00 in 0 W/m2
06:54 14.3 °F 8.4 °F 29.83 in Calm     77% 0.00 in 0 W/m2
07:00 14.3 °F 8.4 °F 29.84 in Calm     77% 0.00 in 0 W/m2
07:06 14.2 °F 8.3 °F 29.84 in Calm     77% 0.00 in 0 W/m2
07:12 14.1 °F 8.2 °F 29.84 in Calm     77% 0.00 in 0 W/m2
07:18 14.1 °F 8.5 °F 29.84 in Calm     78% 0.00 in 0 W/m2
07:24 14.1 °F 8.2 °F 29.83 in Calm     77% 0.00 in 0 W/m2
07:30 14.1 °F 8.5 °F 29.82 in Calm     78% 0.00 in 0 W/m2
07:36 14.3 °F 8.7 °F 29.81 in Calm     78% 0.00 in 0 W/m2
07:42 14.4 °F 8.8 °F 29.81 in Calm     78% 0.00 in 0 W/m2
07:48 14.5 °F 8.9 °F 29.81 in Calm     78% 0.00 in 5 W/m2
07:54 14.6 °F 9.3 °F 29.80 in Calm     79% 0.00 in 9 W/m2
08:02 14.7 °F 9.4 °F 29.79 in Calm     79% 0.00 in 18 W/m2
08:08 14.7 °F 9.4 °F 29.79 in Calm     79% 0.00 in 26 W/m2
08:14 14.8 °F 9.5 °F 29.79 in Calm     79% 0.00 in 26 W/m2
08:16 14.9 °F 9.6 °F 29.79 in Calm     79% 0.00 in 26 W/m2
08:22 15.0 °F 9.7 °F 29.78 in Calm     79% 0.00 in 28 W/m2
08:28 15.2 °F 9.9 °F 29.78 in Calm     79% 0.00 in 32 W/m2
08:34 15.3 °F 10.0 °F 29.78 in Calm     79% 0.00 in 33 W/m2
08:42 15.5 °F 10.1 °F 29.78 in Calm     79% 0.00 in 33 W/m2
08:48 15.6 °F 10.5 °F 29.78 in Calm   1.0 mph 80% 0.00 in 35 W/m2
08:54 15.7 °F 10.6 °F 29.78 in Calm     80% 0.00 in 37 W/m2
09:00 15.9 °F 11.1 °F 29.79 in Calm   1.0 mph 81% 0.00 in 33 W/m2
09:08 16.0 °F 11.5 °F 29.79 in Calm   1.0 mph 82% 0.00 in 35 W/m2
09:14 16.1 °F 11.6 °F 29.79 in SSE 1.0 mph 2.0 mph 82% 0.00 in 37 W/m2
09:22 16.3 °F 12.0 °F 29.79 in Calm   1.0 mph 83% 0.00 in 49 W/m2
09:28 16.5 °F 12.2 °F 29.79 in Calm   1.0 mph 83% 0.00 in 49 W/m2
09:40 17.0 °F 13.0 °F 29.78 in Calm   2.0 mph 84% 0.00 in 54 W/m2
09:46 17.2 °F 13.2 °F 29.77 in Calm   2.0 mph 84% 0.00 in 63 W/m2
09:48 17.3 °F 13.3 °F 29.77 in Calm   2.0 mph 84% 0.00 in 69 W/m2
09:54 17.6 °F 13.6 °F 29.77 in Calm     84% 0.00 in 65 W/m2
10:00 17.7 °F 13.7 °F 29.77 in WSW 1.0 mph 1.0 mph 84% 0.00 in 60 W/m2
10:06 17.9 °F 13.9 °F 29.77 in WSW 1.0 mph 2.0 mph 84% 0.00 in 49 W/m2
10:08 18.0 °F 14.0 °F 29.77 in WSW 1.0 mph 2.0 mph 84% 0.00 in 53 W/m2
10:14 18.2 °F 14.2 °F 29.77 in WSW 1.0 mph 1.0 mph 84% 0.00 in 56 W/m2
10:16 18.2 °F 14.2 °F 29.77 in WSW 1.0 mph 1.0 mph 84% 0.00 in 56 W/m2
10:22 18.3 °F 14.3 °F 29.77 in WSW 1.0 mph 1.0 mph 84% 0.00 in 58 W/m2
10:24 18.4 °F 14.4 °F 29.77 in WSW 1.0 mph 1.0 mph 84% 0.00 in 60 W/m2
10:30 18.5 °F 14.5 °F 29.77 in WSW 1.0 mph 1.0 mph 84% 0.00 in 56 W/m2
10:40 18.7 °F 14.7 °F 29.76 in Calm     84% 0.00 in 56 W/m2
10:46 18.8 °F 15.0 °F 29.76 in Calm   1.0 mph 85% 0.00 in 62 W/m2
11:00 19.1 °F 15.1 °F 29.75 in WSW 1.0 mph 1.0 mph 84% 0.00 in 60 W/m2
11:06 19.2 °F 15.2 °F 29.74 in Calm   1.0 mph 84% 0.00 in 65 W/m2
11:12 19.3 °F 15.5 °F 29.74 in Calm   1.0 mph 85% 0.00 in 69 W/m2
11:20 19.6 °F 15.6 °F 29.74 in NW 1.0 mph 1.0 mph 84% 0.00 in 84 W/m2
11:26 19.7 °F 15.9 °F 29.73 in NW 1.0 mph 2.0 mph 85% 0.00 in 84 W/m2
11:32 19.8 °F 16.0 °F 29.73 in NW 1.0 mph 1.0 mph 85% 0.00 in 81 W/m2
11:38 19.8 °F 16.0 °F 29.72 in NW 2.0 mph 3.0 mph 85% 0.00 in 93 W/m2
11:44 19.7 °F 15.9 °F 29.71 in NW 2.0 mph 3.0 mph 85% 0.00 in 91 W/m2
11:50 19.7 °F 15.9 °F 29.71 in NW 2.0 mph 3.0 mph 85% 0.00 in 98 W/m2
11:56 19.6 °F 15.8 °F 29.71 in NNW 3.0 mph 4.0 mph 85% 0.00 in 104 W/m2
12:04 19.5 °F 15.7 °F 29.70 in NW 3.0 mph 3.0 mph 85% 0.00 in 93 W/m2
12:06 19.5 °F 15.7 °F 29.70 in NW 2.0 mph 3.0 mph 85% 0.00 in 93 W/m2
12:12 19.4 °F 15.9 °F 29.69 in NW 3.0 mph 7.0 mph 86% 0.00 in 90 W/m2
12:14 19.3 °F 15.8 °F 29.69 in NW 3.0 mph 7.0 mph 86% 0.00 in 90 W/m2
12:22 19.3 °F 15.8 °F 29.69 in NNW 3.0 mph 3.0 mph 86% 0.00 in 102 W/m2
12:28 19.2 °F 15.7 °F 29.69 in NNW 3.0 mph 3.0 mph 86% 0.00 in 97 W/m2
12:34 19.2 °F 15.7 °F 29.68 in NNW 3.0 mph 3.0 mph 86% 0.00 in 104 W/m2
12:38 19.3 °F 16.1 °F 29.68 in NNW 3.0 mph 4.0 mph 87% 0.00 in 105 W/m2
12:42 19.3 °F 16.1 °F 29.68 in North 2.0 mph 3.0 mph 87% 0.00 in 116 W/m2
12:50 19.5 °F 16.3 °F 29.68 in North 1.0 mph 1.0 mph 87% 0.00 in 109 W/m2
12:56 19.6 °F 16.4 °F 29.67 in NNW 1.0 mph 3.0 mph 87% 0.00 in 111 W/m2
13:02 19.6 °F 16.4 °F 29.67 in NW 3.0 mph 3.0 mph 87% 0.00 in 107 W/m2
13:08 19.7 °F 16.5 °F 29.66 in NW 3.0 mph 3.0 mph 87% 0.00 in 120 W/m2
13:14 19.8 °F 16.6 °F 29.66 in NNW 2.0 mph 4.0 mph 87% 0.00 in 111 W/m2
13:22 20.0 °F 16.8 °F 29.66 in NNW 2.0 mph 3.0 mph 87% 0.00 in 107 W/m2
13:28 20.1 °F 16.9 °F 29.66 in NNW 3.0 mph 3.0 mph 87% 0.00 in 98 W/m2
13:38 20.2 °F 17.0 °F 29.65 in NNW 2.0 mph 4.0 mph 87% 0.00 in 91 W/m2
13:44 20.3 °F 17.0 °F 29.65 in NNW 2.0 mph 2.0 mph 87% 0.00 in 91 W/m2
13:50 20.6 °F 17.3 °F 29.64 in NNW 1.0 mph 1.0 mph 87% 0.00 in 91 W/m2
14:00 20.7 °F 17.4 °F 29.64 in NNW 2.0 mph 2.0 mph 87% 0.00 in 67 W/m2
14:06 20.8 °F 17.5 °F 29.64 in NNW 2.0 mph 5.0 mph 87% 0.00 in 51 W/m2
14:14 20.7 °F 17.4 °F 29.63 in NNW 3.0 mph 3.0 mph 87% 0.00 in 62 W/m2
14:24 20.7 °F 17.4 °F 29.63 in NNW 3.0 mph 8.0 mph 87% 0.00 in 47 W/m2
14:30 20.8 °F 17.8 °F 29.63 in NNW 4.0 mph 5.0 mph 88% 0.00 in 46 W/m2
14:36 20.8 °F 17.8 °F 29.63 in NNW 3.0 mph 5.0 mph 88% 0.00 in 37 W/m2
14:42 20.7 °F 17.7 °F 29.63 in NNW 3.0 mph 6.0 mph 88% 0.00 in 35 W/m2
14:48 20.7 °F 17.7 °F 29.63 in NW 3.0 mph 6.0 mph 88% 0.00 in 32 W/m2
14:50 20.7 °F 17.7 °F 29.63 in NW 3.0 mph 3.0 mph 88% 0.00 in 26 W/m2
14:56 20.7 °F 17.7 °F 29.63 in NW 2.0 mph 3.0 mph 88% 0.00 in 23 W/m2
15:02 20.6 °F 17.6 °F 29.63 in NW 3.0 mph 4.0 mph 88% 0.00 in 19 W/m2
15:12 20.3 °F 17.3 °F 29.63 in NW 4.0 mph 4.0 mph 88% 0.00 in 14 W/m2
15:18 20.2 °F 17.2 °F 29.63 in NW 3.0 mph 4.0 mph 88% 0.00 in 14 W/m2
15:30 20.1 °F 17.1 °F 29.63 in NW 2.0 mph 2.0 mph 88% 0.00 in 11 W/m2
15:34 20.0 °F 17.0 °F 29.63 in NW 2.0 mph 4.0 mph 88% 0.00 in 11 W/m2
15:40 20.0 °F 16.8 °F 29.63 in WNW 3.0 mph 3.0 mph 87% 0.00 in 9 W/m2
15:52 19.9 °F 16.7 °F 29.63 in NW 2.0 mph 3.0 mph 87% 0.00 in 5 W/m2
15:56 19.9 °F 16.7 °F 29.63 in WNW 2.0 mph 3.0 mph 87% 0.00 in 5 W/m2
16:34 19.6 °F 16.4 °F 29.63 in NNW 2.0 mph 2.0 mph 87% 0.00 in 0 W/m2
16:50 19.6 °F 16.6 °F 29.63 in WNW 2.0 mph 2.0 mph 88% 0.00 in 0 W/m2
16:56 19.6 °F 16.6 °F 29.63 in NW 2.0 mph 3.0 mph 88% 0.00 in 0 W/m2
17:00 19.6 °F 16.6 °F 29.63 in NNW 2.0 mph 2.0 mph 88% 0.00 in 0 W/m2
17:08 19.6 °F 16.6 °F 29.63 in WNW 2.0 mph 6.0 mph 88% 0.00 in 0 W/m2
17:14 19.6 °F 16.6 °F 29.62 in WNW 3.0 mph 4.0 mph 88% 0.00 in 0 W/m2
17:20 19.5 °F 16.5 °F 29.63 in NW 3.0 mph 3.0 mph 88% 0.00 in 0 W/m2
17:26 19.5 °F 16.5 °F 29.63 in WNW 2.0 mph 3.0 mph 88% 0.00 in 0 W/m2
17:38 19.3 °F 16.3 °F 29.63 in NW 3.0 mph 3.0 mph 88% 0.00 in 0 W/m2
17:42 19.3 °F 16.6 °F 29.63 in WNW 3.0 mph 3.0 mph 89% 0.00 in 0 W/m2
17:46 19.2 °F 16.5 °F 29.63 in WNW 2.0 mph 3.0 mph 89% 0.00 in 0 W/m2
17:48 19.1 °F 16.4 °F 29.63 in WNW 2.0 mph 3.0 mph 89% 0.00 in 0 W/m2
17:52 19.1 °F 16.1 °F 29.63 in NW 2.0 mph 3.0 mph 88% 0.00 in 0 W/m2
17:58 18.9 °F 16.2 °F 29.63 in NW 3.0 mph 3.0 mph 89% 0.00 in 0 W/m2
18:02 18.8 °F 16.1 °F 29.63 in NW 3.0 mph 3.0 mph 89% 0.00 in 0 W/m2
18:08 18.7 °F 15.7 °F 29.63 in NNW 3.0 mph 6.0 mph 88% 0.00 in 0 W/m2
18:12 18.6 °F 15.6 °F 29.63 in NW 3.0 mph 3.0 mph 88% 0.00 in 0 W/m2
18:20 18.5 °F 15.5 °F 29.63 in WNW 2.0 mph 3.0 mph 88% 0.00 in 0 W/m2
18:26 18.4 °F 15.4 °F 29.63 in NW 2.0 mph 3.0 mph 88% 0.00 in 0 W/m2
18:32 18.4 °F 15.7 °F 29.63 in WNW 1.0 mph 3.0 mph 89% 0.00 in 0 W/m2
18:38 18.3 °F 15.6 °F 29.64 in NW 2.0 mph 4.0 mph 89% 0.00 in 0 W/m2
18:44 18.2 °F 15.5 °F 29.64 in NW 2.0 mph 6.0 mph 89% 0.00 in 0 W/m2
18:46 18.3 °F 15.6 °F 29.64 in WNW 2.0 mph 6.0 mph 89% 0.00 in 0 W/m2
18:54 18.2 °F 15.5 °F 29.64 in WNW 2.0 mph 6.0 mph 89% 0.00 in 0 W/m2
18:58 18.1 °F 15.4 °F 29.64 in NW 2.0 mph 6.0 mph 89% 0.00 in 0 W/m2
19:04 18.0 °F 15.0 °F 29.64 in NW 3.0 mph 5.0 mph 88% 0.00 in 0 W/m2
19:12 17.8 °F 14.8 °F 29.64 in WNW 3.0 mph 7.0 mph 88% 0.00 in 0 W/m2
19:18 17.7 °F 14.8 °F 29.64 in NW 3.0 mph 7.0 mph 88% 0.00 in 0 W/m2
19:24 17.5 °F 14.6 °F 29.65 in West 3.0 mph 4.0 mph 88% 0.00 in 0 W/m2
19:30 17.3 °F 14.4 °F 29.65 in NNW 3.0 mph 3.0 mph 88% 0.00 in 0 W/m2
19:44 17.0 °F 14.1 °F 29.65 in NW 2.0 mph 2.0 mph 88% 0.00 in 0 W/m2
19:58 16.8 °F 13.9 °F 29.65 in WNW 2.0 mph 2.0 mph 88% 0.00 in 0 W/m2
20:08 16.5 °F 13.6 °F 29.65 in NW 3.0 mph 4.0 mph 88% 0.00 in 0 W/m2
20:14 16.2 °F 13.3 °F 29.65 in NW 3.0 mph 3.0 mph 88% 0.00 in 0 W/m2
20:26 15.9 °F 13.0 °F 29.65 in West 1.0 mph 5.0 mph 88% 0.00 in 0 W/m2
20:32 15.7 °F 12.8 °F 29.65 in NNW 2.0 mph 2.0 mph 88% 0.00 in 0 W/m2
20:38 15.6 °F 12.7 °F 29.65 in NW 2.0 mph 2.0 mph 88% 0.00 in 0 W/m2
20:44 15.5 °F 12.6 °F 29.66 in WNW 1.0 mph 2.0 mph 88% 0.00 in 0 W/m2
20:50 15.3 °F 12.4 °F 29.66 in NW 2.0 mph 2.0 mph 88% 0.00 in 0 W/m2
20:52 15.2 °F 12.3 °F 29.66 in NNW 3.0 mph 3.0 mph 88% 0.00 in 0 W/m2
21:04 14.7 °F 11.8 °F 29.66 in WNW 3.0 mph 5.0 mph 88% 0.00 in 0 W/m2
21:10 14.5 °F 11.6 °F 29.66 in NW 3.0 mph 3.0 mph 88% 0.00 in 0 W/m2
21:18 14.3 °F 11.4 °F 29.66 in WNW 2.0 mph 4.0 mph 88% 0.00 in 0 W/m2
21:24 14.0 °F 10.8 °F 29.66 in North 3.0 mph 7.0 mph 87% 0.00 in 0 W/m2
21:30 13.8 °F 10.6 °F 29.66 in NW 3.0 mph 3.0 mph 87% 0.00 in 0 W/m2
21:38 13.4 °F 10.3 °F 29.67 in NW 2.0 mph 4.0 mph 87% 0.00 in 0 W/m2
21:44 13.1 °F 10.0 °F 29.67 in West 3.0 mph 5.0 mph 87% 0.00 in 0 W/m2
21:54 12.7 °F 9.6 °F 29.67 in North 3.0 mph 4.0 mph 87% 0.00 in 0 W/m2
22:00 12.5 °F 9.4 °F 29.67 in WNW 3.0 mph 3.0 mph 87% 0.00 in 0 W/m2
22:06 12.3 °F 9.2 °F 29.67 in NW 3.0 mph 6.0 mph 87% 0.00 in 0 W/m2
22:12 12.2 °F 8.8 °F 29.67 in NNW 4.0 mph 6.0 mph 86% 0.00 in 0 W/m2
22:18 12.1 °F 8.7 °F 29.67 in NNW 3.0 mph 6.0 mph 86% 0.00 in 0 W/m2
22:26 12.0 °F 8.9 °F 29.68 in NNW 2.0 mph 3.0 mph 87% 0.00 in 0 W/m2
22:38 11.8 °F 8.4 °F 29.68 in NW 2.0 mph 3.0 mph 86% 0.00 in 0 W/m2
22:46 11.7 °F 8.3 °F 29.68 in NW 3.0 mph 3.0 mph 86% 0.00 in 0 W/m2
22:56 11.4 °F 8.0 °F 29.68 in NW 3.0 mph 3.0 mph 86% 0.00 in 0 W/m2
23:02 11.3 °F 7.9 °F 29.68 in NW 2.0 mph 5.0 mph 86% 0.00 in 0 W/m2
23:08 11.2 °F 7.8 °F 29.68 in NW 2.0 mph 5.0 mph 86% 0.00 in 0 W/m2
23:16 10.8 °F 7.4 °F 29.68 in NW 4.0 mph 8.0 mph 86% 0.00 in 0 W/m2
23:22 10.6 °F 7.2 °F 29.68 in NW 3.0 mph 5.0 mph 86% 0.00 in 0 W/m2
23:28 10.3 °F 6.9 °F 29.69 in NNW 2.0 mph 5.0 mph 86% 0.00 in 0 W/m2
23:34 10.2 °F 6.8 °F 29.69 in NW 2.0 mph 2.0 mph 86% 0.00 in 0 W/m2
23:40 9.9 °F 6.6 °F 29.69 in NW 2.0 mph 2.0 mph 86% 0.00 in 0 W/m2
23:46 9.5 °F 6.2 °F 29.69 in WNW 3.0 mph 4.0 mph 86% 0.00 in 0 W/m2
23:52 9.2 °F 5.9 °F 29.69 in WNW 2.0 mph 3.0 mph 86% 0.00 in 0 W/m2
23:58 9.0 °F 5.7 °F 29.70 in NW 2.0 mph 3.0 mph 86% 0.00 in 0 W/m2
Country Meadow, Clay, NY, USA
Compliments of Weather Underground - 2 mb